Wind_Speed
7 7 7 8 9 9 10 10 8 8 8 8 7 7 8 8 9 10 10 9 8 8 7 6 5 3 4 5 6 7 10 12 14 16 18 21 24 26 29 32 35 37 40 42
7 7 8 8 9 9 10 9 8 8 7 8 8 8 8 8 8 7 7 7 7 6 5 3 1 1 2 5 7 9 10 12 15 17 20 23 26 29 32 35 37 40 42 44
7 7 7 7 8 8 8 8 8 7 7 7 6 6 6 6 6 6 6 5 4 4 3 2 2 3 5 7 8 10 13 15 17 20 23 25 28 31 33 36 38 41 43 46
8 7 7 8 8 8 8 7 8 7 7 6 6 6 6 6 5 5 4 3 2 0 1 3 4 6 8 9 12 14 17 20 23 25 27 30 32 34 36 38 40 42 44 46
9 8 7 7 7 7 7 7 6 6 5 5 5 4 4 3 3 2 1 0 2 4 5 6 8 10 12 14 16 18 20 23 25 28 31 33 35 37 39 40 41 43 45 46
8 8 7 6 6 6 6 5 5 5 5 4 4 3 3 2 2 2 3 4 5 7 9 10 11 13 15 17 19 21 24 26 28 29 32 34 36 38 40 41 43 44 46 46
7 7 6 6 6 5 4 4 4 5 6 5 5 4 4 4 5 5 6 7 9 10 11 12 14 16 17 19 21 23 26 27 29 31 32 34 36 38 40 42 44 46 48 48
7 6 6 6 6 5 5 5 4 5 5 6 6 6 6 6 7 8 9 10 11 12 13 15 16 18 21 23 25 27 29 30 32 34 35 38 39 41 43 45 46 47 48 48
7 7 7 7 6 6 6 6 5 5 5 5 6 7 7 8 9 10 11 12 13 14 16 18 20 22 24 26 29 31 32 34 35 37 39 41 43 44 46 47 48 48 48 47
6 7 7 7 7 7 7 7 7 7 7 7 7 7 8 9 10 11 13 14 15 17 18 20 22 24 27 29 31 33 34 36 38 40 42 44 45 47 48 48 48 48 48 48
7 7 8 7 7 7 7 7 8 8 8 8 9 9 10 11 12 14 15 16 17 19 21 23 25 28 30 32 34 36 38 39 41 43 45 47 48 49 49 49 49 49 49 50
8 9 9 8 9 9 9 9 9 10 10 11 11 12 13 14 15 16 17 19 20 22 24 27 29 32 34 36 37 39 41 42 44 46 48 50 50 51 51 51 50 51 51 50
11 11 10 10 11 11 12 12 12 12 12 13 14 15 16 18 19 20 20 22 24 26 28 30 33 35 37 39 40 42 43 45 47 49 51 51 51 51 51 51 51 51 51 50
13 14 13 13 14 14 14 15 16 16 17 17 17 18 19 21 22 23 24 25 27 29 31 33 36 38 39 41 43 45 47 48 50 52 53 52 52 52 52 51 50 50 50 49
17 17 17 17 17 17 17 18 19 20 20 21 21 22 22 23 24 26 27 28 30 32 34 36 38 40 42 44 45 47 49 50 52 53 53 53 53 53 53 52 50 49 48 47
20 21 21 20 21 21 21 21 21 22 23 23 24 25 26 26 27 29 30 32 33 35 37 39 41 42 44 46 47 49 51 52 53 53 53 53 53 53 52 50 49 48 46 45
24 24 24 24 24 24 24 24 24 24 25 26 26 27 28 29 30 31 33 35 36 38 39 41 43 44 46 48 49 51 52 52 53 54 53 53 52 51 49 48 47 45 43 41
27 27 27 27 27 27 27 27 27 27 28 28 29 30 30 31 32 34 35 37 38 40 41 43 45 46 48 49 51 52 52 53 53 53 53 52 51 49 48 47 45 43 41 38
30 30 30 30 30 30 30 30 30 30 30 31 31 32 32 33 34 36 37 38 40 41 43 44 46 47 49 50 51 52 53 53 53 52 52 51 50 48 46 45 43 41 39 37
33 33 32 32 32 32 32 32 32 33 33 33 34 34 34 35 36 37 39 40 41 43 44 46 47 48 49 50 52 53 53 53 52 52 51 50 49 47 45 43 41 39 36 34
36 35 35 34 34 34 34 34 34 34 35 35 35 35 36 37 38 39 40 41 43 44 45 46 47 49 50 51 52 53 53 52 52 51 50 49 47 45 43 40 38 36 34 32
36 36 36 36 36 36 36 36 36 36 36 36 37 37 37 38 39 40 42 43 44 45 46 47 48 49 50 51 52 53 53 52 51 50 49 47 45 43 41 38 36 34 32 31
37 36 36 37 37 37 37 38 38 37 37 38 38 38 39 39 41 42 43 43 44 45 46 47 48 49 50 51 52 53 52 52 50 49 47 46 44 41 39 36 34 33 31 30
37 37 37 38 38 39 38 38 39 39 39 39 40 40 41 41 42 43 44 44 45 46 47 48 49 50 50 51 52 52 52 51 50 49 47 45 42 40 38 35 33 32 31 29
38 38 38 39 39 40 40 39 39 39 39 40 40 41 41 42 43 44 44 44 45 46 48 49 49 50 50 51 51 51 50 50 49 47 45 43 41 39 36 34 33 31 29 27
38 39 39 39 40 40 40 40 40 40 40 41 41 41 42 42 43 43 44 45 45 46 48 48 49 50 50 50 50 49 49 49 48 46 44 41 39 37 35 33 31 29 27 25
39 39 40 40 40 40 40 40 40 40 40 41 41 42 42 42 42 43 44 44 45 46 47 47 48 49 49 49 48 48 48 47 46 44 41 39 37 35 33 31 29 26 24 22
Wind_Direction
131 124 120 126 137 141 140 138 135 132 128 124 125 126 123 114 108 103 109 112 114 118 116 125 146 171 207 229 247 260 261 263 268 271 271 273 274 277 277 276 276 276 275 274
140 133 127 127 134 142 139 135 134 131 125 119 119 120 123 118 110 108 106 108 106 105 108 111 118 252 267 276 279 277 275 279 283 281 281 281 281 283 283 282 281 280 278 276
143 141 136 135 137 147 147 141 138 135 130 129 128 124 123 119 112 105 101 98 97 95 82 26 319 305 301 304 300 292 287 288 291 291 291 291 289 287 286 286 285 282 280 279
154 147 143 135 134 139 147 148 145 141 137 133 130 126 123 122 120 118 112 108 105 36 328 322 314 310 307 306 303 301 299 296 293 292 292 292 291 289 288 287 286 284 283 283
160 157 148 140 135 135 140 149 151 150 147 145 143 139 135 131 130 131 142 229 286 293 294 299 302 304 305 307 306 304 304 302 298 294 293 292 292 291 291 290 289 288 288 286
166 166 167 159 151 146 144 152 161 167 167 167 170 176 184 192 211 244 273 285 293 299 303 306 307 306 307 308 307 306 305 304 303 301 299 297 296 295 293 292 291 291 291 289
173 175 175 179 180 175 173 170 176 181 184 189 197 212 230 246 263 275 282 289 294 299 302 304 307 309 309 309 308 308 307 307 306 305 304 302 301 299 297 295 293 293 291 289
192 194 194 196 198 202 202 199 199 201 209 219 230 244 254 261 270 279 286 292 297 301 303 306 308 310 310 311 311 310 309 309 308 306 305 304 303 301 300 298 297 295 293 291
205 206 202 206 212 215 219 220 221 222 228 238 247 257 264 271 276 282 287 292 298 304 307 308 310 310 311 312 312 311 310 310 310 308 307 306 305 304 302 300 299 297 296 294
215 217 219 222 226 230 232 235 237 239 244 251 258 267 275 281 284 287 291 296 301 305 309 310 310 311 312 313 313 312 311 310 310 310 309 308 307 306 304 302 300 299 297 295
230 232 233 234 237 238 240 243 247 251 256 262 268 273 279 284 289 293 297 300 303 307 309 310 311 312 313 314 313 312 312 311 311 310 309 308 307 306 305 303 301 299 297 296
246 245 246 247 249 250 252 254 258 261 265 269 274 280 285 289 294 297 299 302 304 307 309 310 312 313 314 313 312 312 312 312 311 310 310 309 308 307 306 304 302 300 299 298
256 255 255 256 257 258 260 262 264 268 272 276 279 283 287 291 294 297 300 302 305 307 308 310 311 312 313 313 312 313 312 312 312 311 310 309 308 308 307 305 302 300 299 298
260 260 260 262 264 265 266 268 270 273 276 279 281 284 287 290 293 296 299 301 303 306 308 310 311 312 312 313 313 313 313 312 312 311 311 310 309 309 308 306 304 301 300 299
262 262 262 264 267 268 270 271 273 275 277 279 281 284 287 289 292 295 298 300 303 305 308 310 311 311 312 312 313 313 313 312 312 313 313 311 310 309 309 307 305 303 302 300
262 263 265 266 268 270 271 272 274 276 277 279 281 283 286 289 292 295 298 300 303 306 308 309 311 312 312 313 314 314 314 313 314 314 314 313 312 311 310 308 307 306 304 302
263 264 266 267 269 270 272 274 276 277 278 279 281 284 286 289 292 295 298 300 303 305 307 309 310 311 313 314 314 314 314 315 315 315 314 314 313 312 311 310 309 307 306 303
262 264 266 268 269 271 272 274 276 278 278 280 282 285 287 290 292 295 297 300 302 305 307 308 310 311 313 315 315 315 316 316 316 316 315 315 314 313 312 311 309 307 305 302
259 261 264 267 269 271 272 273 275 277 279 281 283 285 287 289 292 294 297 299 302 304 306 307 310 312 314 315 316 317 317 317 317 316 316 315 314 313 312 311 309 307 305 302
259 261 263 266 268 270 272 274 275 277 279 281 282 284 287 289 291 294 296 299 301 303 306 307 309 312 313 315 317 317 318 318 318 317 316 315 315 314 312 311 310 308 306 303
260 261 263 265 267 269 271 273 275 277 278 281 282 283 286 289 292 294 296 298 301 303 306 308 310 311 313 315 317 318 318 318 318 317 316 316 315 314 313 312 310 308 306 304
260 261 263 265 267 269 271 273 274 276 278 280 281 283 286 289 292 294 296 298 300 303 306 307 309 311 313 315 316 318 319 319 318 317 317 316 315 314 313 311 310 309 307 305
261 261 262 265 267 269 271 273 274 275 277 279 281 283 285 289 292 294 296 298 300 303 305 307 309 311 313 315 316 318 318 318 318 317 317 316 315 314 313 311 310 308 306 305
262 262 263 265 267 269 272 274 275 276 278 280 281 283 286 288 291 294 296 298 301 303 305 307 309 311 313 315 317 318 318 318 317 316 316 316 315 314 313 311 309 307 305 303
262 263 264 265 267 269 271 274 275 277 279 281 282 284 286 288 290 293 296 298 301 303 305 307 309 311 313 315 316 317 318 318 317 317 316 315 314 313 312 311 309 306 304 301
263 263 263 265 267 269 271 273 276 278 280 281 283 284 286 288 290 293 296 298 301 303 305 307 309 311 313 315 316 317 318 318 318 318 316 315 315 313 312 310 308 306 303 300
264 264 265 267 268 270 272 274 276 278 280 281 283 284 287 289 291 294 296 298 301 303 306 308 310 312 314 316 317 318 319 319 319 319 317 316 315 314 313 310 307 304 302 299
Height
5635 5635 5635 5636 5636 5637 5638 5638 5639 5639 5639 5640 5640 5640 5640 5640 5641 5641 5641 5642 5643 5643 5644 5645 5647 5648 5649 5649 5650 5651 5652 5653 5653 5654 5654 5654 5653 5653 5652 5652 5650 5649 5647 5646
5636 5637 5637 5638 5638 5638 5639 5639 5640 5640 5641 5641 5641 5641 5641 5642 5642 5642 5643 5643 5644 5644 5645 5646 5647 5647 5648 5648 5648 5648 5648 5648 5648 5648 5647 5646 5646 5645 5643 5641 5639 5636 5634 5632
5638 5639 5639 5640 5640 5640 5641 5641 5641 5642 5643 5642 5643 5643 5643 5643 5643 5644 5644 5644 5645 5645 5645 5646 5646 5646 5646 5646 5645 5644 5643 5643 5642 5641 5640 5638 5637 5634 5632 5629 5626 5623 5620 5617
5640 5641 5641 5644 5641 5641 5642 5642 5643 5643 5644 5644 5644 5644 5644 5644 5645 5645 5645 5645 5645 5645 5645 5645 5645 5645 5644 5643 5641 5640 5638 5637 5635 5634 5632 5629 5627 5624 5621 5618 5614 5610 5607 5602
5641 5641 5642 5643 5643 5642 5643 5643 5643 5644 5644 5644 5645 5645 5645 5645 5645 5645 5645 5645 5645 5644 5644 5643 5642 5641 5640 5638 5637 5635 5633 5631 5628 5626 5623 5620 5617 5613 5609 5605 5601 5597 5593 5588
5642 5642 5643 5645 5644 5643 5645 5644 5644 5644 5644 5644 5645 5646 5646 5645 5645 5645 5645 5644 5643 5643 5642 5640 5639 5637 5636 5634 5631 5629 5627 5624 5621 5617 5614 5611 5607 5603 5598 5594 5589 5585 5579 5574
5642 5643 5644 5644 5644 5645 5646 5647 5645 5644 5644 5644 5645 5645 5645 5644 5644 5643 5643 5642 5641 5640 5638 5637 5635 5633 5631 5628 5626 5623 5619 5616 5612 5608 5605 5600 5596 5591 5587 5582 5577 5572 5565 5559
5642 5643 5646 5644 5644 5645 5645 5644 5644 5644 5644 5644 5644 5643 5643 5642 5642 5641 5640 5639 5637 5636 5634 5632 5630 5628 5625 5622 5619 5615 5611 5607 5603 5598 5594 5589 5584 5578 5573 5568 5562 5555 5549 5544
5643 5644 5643 5643 5643 5643 5643 5643 5643 5643 5643 5642 5642 5641 5640 5640 5639 5638 5636 5635 5633 5632 5629 5627 5624 5622 5619 5615 5611 5607 5602 5598 5593 5588 5582 5577 5571 5565 5559 5553 5546 5540 5534 5528
5641 5642 5641 5641 5641 5642 5641 5641 5641 5641 5641 5640 5639 5639 5638 5637 5635 5634 5632 5631 5629 5626 5624 5621 5618 5615 5611 5606 5602 5597 5593 5588 5582 5577 5571 5564 5558 5551 5544 5538 5531 5524 5518 5513
5639 5640 5640 5640 5640 5640 5639 5639 5639 5638 5638 5637 5636 5636 5634 5633 5631 5630 5628 5625 5623 5620 5617 5614 5610 5606 5602 5597 5592 5587 5582 5577 5571 5565 5558 5551 5544 5536 5529 5522 5514 5508 5503 5497
5638 5638 5638 5638 5637 5637 5637 5636 5636 5635 5635 5634 5633 5631 5630 5628 5626 5624 5622 5619 5617 5614 5610 5606 5602 5597 5592 5587 5582 5577 5571 5565 5559 5552 5544 5537 5530 5522 5513 5506 5499 5491 5485 5479
5634 5634 5634 5634 5634 5634 5633 5633 5632 5631 5630 5629 5628 5626 5625 5623 5621 5618 5615 5612 5609 5606 5602 5598 5593 5588 5583 5577 5571 5565 5559 5553 5546 5538 5530 5522 5515 5507 5500 5492 5483 5476 5469 5463
5630 5630 5630 5630 5630 5629 5628 5628 5627 5626 5625 5624 5622 5620 5619 5616 5614 5611 5608 5605 5602 5598 5594 5589 5584 5578 5572 5566 5560 5554 5547 5539 5531 5523 5515 5507 5499 5491 5484 5476 5469 5461 5454 5447
5625 5624 5624 5624 5624 5623 5623 5622 5621 5620 5618 5617 5615 5614 5612 5609 5607 5604 5601 5597 5593 5589 5584 5579 5574 5568 5561 5555 5548 5541 5533 5525 5517 5508 5500 5492 5484 5476 5468 5460 5453 5446 5439 5432
5618 5618 5618 5618 5617 5617 5616 5615 5614 5613 5611 5609 5608 5606 5604 5601 5598 5595 5592 5588 5584 5579 5574 5569 5563 5557 5550 5543 5536 5528 5520 5511 5503 5495 5486 5478 5470 5461 5453 5445 5438 5431 5425 5419
5611 5611 5610 5610 5610 5609 5608 5607 5606 5605 5603 5601 5599 5597 5595 5592 5589 5586 5582 5578 5574 5569 5564 5558 5552 5546 5539 5531 5523 5515 5507 5498 5490 5481 5473 5464 5456 5448 5440 5432 5425 5419 5412 5406
5602 5602 5602 5602 5601 5600 5600 5599 5597 5596 5594 5592 5590 5588 5586 5583 5580 5576 5572 5568 5564 5559 5553 5547 5541 5534 5527 5519 5511 5502 5494 5485 5477 5468 5459 5451 5443 5435 5428 5420 5414 5407 5401 5396
5591 5592 5592 5592 5592 5591 5590 5589 5588 5586 5585 5583 5581 5578 5576 5573 5570 5566 5562 5558 5553 5548 5542 5536 5529 5522 5515 5507 5499 5490 5481 5473 5464 5456 5447 5439 5431 5423 5416 5409 5402 5396 5391 5386
5581 5582 5582 5581 5581 5581 5580 5579 5578 5576 5574 5572 5570 5568 5565 5562 5559 5555 5551 5547 5542 5536 5530 5524 5517 5510 5503 5495 5487 5478 5470 5461 5452 5444 5435 5427 5420 5412 5405 5398 5392 5386 5381 5376
5570 5571 5571 5571 5570 5570 5569 5568 5567 5565 5564 5562 5560 5557 5555 5551 5548 5544 5540 5536 5530 5524 5519 5512 5506 5499 5491 5484 5476 5467 5458 5450 5441 5433 5424 5417 5409 5402 5394 5388 5382 5377 5372 5367
5559 5559 5560 5560 5559 5559 5558 5557 5555 5554 5552 5550 5548 5546 5543 5540 5537 5533 5529 5524 5519 5513 5507 5501 5494 5487 5480 5472 5464 5456 5447 5439 5430 5422 5414 5406 5398 5391 5385 5379 5373 5368 5363 5359
5547 5547 5548 5548 5548 5547 5546 5545 5544 5542 5541 5539 5537 5534 5532 5529 5525 5521 5517 5512 5507 5502 5496 5490 5483 5476 5469 5461 5453 5445 5436 5428 5419 5411 5403 5395 5388 5382 5375 5369 5364 5359 5355 5351
5535 5535 5536 5536 5536 5535 5535 5533 5532 5531 5529 5527 5525 5523 5520 5517 5513 5509 5505 5500 5496 5490 5484 5478 5471 5464 5457 5449 5441 5433 5425 5416 5408 5400 5393 5385 5378 5372 5366 5360 5355 5351 5347 5343
5522 5523 5523 5523 5523 5523 5522 5521 5520 5519 5517 5515 5513 5511 5508 5505 5501 5497 5493 5489 5484 5478 5473 5466 5459 5453 5445 5438 5430 5422 5413 5405 5397 5389 5382 5375 5368 5362 5356 5351 5347 5342 5339 5335
5510 5511 5511 5511 5511 5510 5510 5509 5508 5507 5505 5503 5501 5498 5496 5492 5489 5485 5481 5477 5472 5466 5461 5454 5448 5441 5434 5426 5418 5410 5402 5394 5386 5379 5372 5365 5359 5353 5347 5342 5338 5334 5331 5328
5498 5498 5498 5498 5498 5498 5497 5497 5496 5495 5493 5491 5489 5486 5483 5480 5477 5473 5469 5465 5460 5454 5449 5443 5436 5429 5422 5415 5407 5399 5392 5384 5376 5369 5362 5355 5349 5344 5339 5334 5330 5326 5323 5321